TimePDT,TemperatureF,Dew PointF,Humidity,Sea Level PressureIn,VisibilityMPH,Wind Direction,Wind SpeedMPH,Gust SpeedMPH,PrecipitationIn,Events,Conditions,WindDirDegrees,DateUTC
12:56 AM,59.0,53.1,81,29.83,10.0,Calm,Calm,-,N/A,,Clear,0,2013-09-15 07:56:00
1:51 AM,59.0,53.6,82,29.83,10.0,WNW,4.6,-,N/A,,Mostly Cloudy,290,2013-09-15 08:51:00
1:56 AM,59.0,53.1,81,29.84,10.0,West,3.5,-,N/A,,Mostly Cloudy,280,2013-09-15 08:56:00
2:35 AM,60.8,53.6,77,29.83,10.0,NW,3.5,-,N/A,,Overcast,320,2013-09-15 09:35:00
2:56 AM,60.1,53.1,78,29.84,10.0,North,5.8,-,N/A,,Overcast,350,2013-09-15 09:56:00
3:30 AM,60.8,53.6,77,29.83,10.0,West,3.5,-,N/A,,Overcast,260,2013-09-15 10:30:00
3:56 AM,59.0,53.1,81,29.85,10.0,NNW,9.2,-,N/A,,Overcast,330,2013-09-15 10:56:00
4:24 AM,59.0,53.6,82,29.84,10.0,Calm,Calm,-,N/A,,Overcast,0,2013-09-15 11:24:00
4:56 AM,60.1,53.1,78,29.85,10.0,Calm,Calm,-,N/A,,Overcast,0,2013-09-15 11:56:00
5:56 AM,60.1,53.1,78,29.86,10.0,Calm,Calm,-,N/A,,Overcast,0,2013-09-15 12:56:00
6:56 AM,60.1,52.0,75,29.87,10.0,Calm,Calm,-,N/A,,Overcast,0,2013-09-15 13:56:00
7:56 AM,60.1,52.0,75,29.88,10.0,Calm,Calm,-,N/A,,Overcast,0,2013-09-15 14:56:00
8:56 AM,61.0,53.1,75,29.89,10.0,Variable,3.5,-,N/A,,Overcast,0,2013-09-15 15:56:00
9:53 AM,64.4,53.6,68,29.89,10.0,Calm,Calm,-,N/A,,Partly Cloudy,0,2013-09-15 16:53:00
9:56 AM,63.0,53.1,70,29.90,10.0,Calm,Calm,-,N/A,,Partly Cloudy,0,2013-09-15 16:56:00
10:56 AM,66.0,54.0,65,29.90,10.0,NNE,5.8,-,N/A,,Clear,20,2013-09-15 17:56:00
11:56 AM,69.1,54.0,58,29.90,10.0,Variable,4.6,-,N/A,,Clear,0,2013-09-15 18:56:00
12:56 PM,73.0,55.0,53,29.89,10.0,NNE,6.9,-,N/A,,Clear,20,2013-09-15 19:56:00
1:56 PM,73.9,55.9,53,29.88,10.0,North,11.5,-,N/A,,Clear,350,2013-09-15 20:56:00
2:56 PM,75.9,57.0,52,29.86,10.0,North,16.1,-,N/A,,Clear,350,2013-09-15 21:56:00
3:56 PM,75.9,57.0,52,29.85,10.0,NNW,18.4,-,N/A,,Clear,340,2013-09-15 22:56:00
4:56 PM,73.9,60.1,62,29.84,10.0,North,17.3,-,N/A,,Clear,350,2013-09-15 23:56:00
5:56 PM,73.0,59.0,61,29.83,10.0,NNW,13.8,-,N/A,,Clear,340,2013-09-16 00:56:00
6:56 PM,71.1,60.1,68,29.84,10.0,NNW,12.7,-,N/A,,Clear,340,2013-09-16 01:56:00
7:56 PM,69.1,59.0,70,29.86,10.0,NNW,9.2,-,N/A,,Clear,340,2013-09-16 02:56:00
8:56 PM,66.0,60.1,81,29.88,10.0,North,10.4,-,N/A,,Clear,360,2013-09-16 03:56:00
9:56 PM,64.9,60.1,84,29.88,10.0,North,8.1,-,N/A,,Clear,360,2013-09-16 04:56:00
10:20 PM,64.4,60.8,88,29.88,10.0,NNW,5.8,-,N/A,,Mostly Cloudy,330,2013-09-16 05:20:00
10:56 PM,64.9,60.1,84,29.89,10.0,North,5.8,-,N/A,,Overcast,350,2013-09-16 05:56:00
11:56 PM,64.9,60.1,84,29.89,10.0,Calm,Calm,-,N/A,,Overcast,0,2013-09-16 06:56:00